This demonstration page uses our WeatherBlox Daily Observations layout. Learn more.

Left ArrowRight Arrow

47.50024, -111.30081

Hourly Observations for January 14, 2022

Temp ( °F °C ) Dew Point ( °F °C ) Humidity (%) Winds ( mph kmh ) Pressure ( in mb ) Visibility ( mi km ) Precip ( " mm )
12:53 am 00:53 Cloudy with Light Snow 33 0.6 29 -1.7 85 85 NW 7 11 30.37 1029 5 8 0.01 0.25
1:53 am 01:53 Cloudy 33 0.6 28 -2.2 82 82 N 5 7 30.39 1029 10 16 0.00 0.00
2:53 am 02:53 Cloudy 33 0.6 28 -2.2 82 82 SW 3 6 30.41 1030 10 16 0.00 0.00
3:53 am 03:53 Cloudy 32 0 28 -2.2 85 85 Calm 30.44 1031 10 16 0.00 0.00
4:53 am 04:53 Cloudy 32 0 28 -2.2 85 85 NW 5 7 30.46 1032 10 16 0.00 0.00
5:53 am 05:53 Cloudy 31 -0.6 27 -2.8 85 85 SW 7 11 30.51 1033 10 16 0.00 0.00
6:53 am 06:53 Cloudy 31 -0.6 28 -2.2 89 89 SSW 6 9 30.52 1034 10 16 0.00 0.00
7:53 am 07:53 Cloudy 30 -1.1 27 -2.8 88 88 WSW 7 11 30.55 1035 8 13 0.00 0.00
8:53 am 08:53 Cloudy with Mist and Fog 31 -0.6 29 -1.7 92 92 W 5 7 30.55 1035 6 10 0.00 0.00
9:53 am 09:53 Cloudy 33 0.6 30 -1.1 89 89 Calm 30.57 1035 10 16 0.00 0.00
10:53 am 10:53 Cloudy 35 1.7 30 -1.1 82 82 Calm 30.58 1035 10 16 0.00 0.00
11:53 am 11:53 Mostly Sunny 38 3.3 29 -1.7 70 70 Calm 30.54 1034 10 16 0.00 0.00
12:53 pm 12:53 Sunny 40 4.4 29 -1.7 65 65 S 6 9 30.52 1034 10 16 0.00 0.00
1:53 pm 13:53 Sunny 41 5 29 -1.7 62 62 SSE 5 7 30.50 1033 10 16 0.00 0.00
2:53 pm 14:53 Sunny 43 6.1 29 -1.7 58 58 Calm 30.49 1032 10 16 0.00 0.00
3:53 pm 15:53 Sunny 41 5 30 -1.1 65 65 ESE 6 9 30.48 1032 10 16 0.00 0.00
4:53 pm 16:53 Sunny 37 2.8 29 -1.7 73 73 ESE 6 9 30.48 1032 10 16 0.00 0.00
5:53 pm 17:53 Clear 31 -0.6 26 -3.3 82 82 SSW 6 9 30.49 1033 10 16 0.00 0.00
6:53 pm 18:53 Clear 33 0.6 26 -3.3 75 75 S 9 15 30.46 1032 10 16 0.00 0.00
7:53 pm 19:53 Clear 36 2.2 26 -3.3 67 67 S 14 22 30.43 1030 10 16 0.00 0.00
8:53 pm 20:53 Clear 35 1.7 25 -3.9 67 67 SSW 14 22 30.41 1030 10 16 0.00 0.00
9:53 pm 21:53 Clear 32 0 24 -4.4 73 73 SSW 12 19 30.38 1029 10 16 0.00 0.00
10:53 pm 22:53 Clear 35 1.7 25 -3.9 67 67 SSW 17 28 30.34 1027 10 16 0.00 0.00
11:53 pm 23:53 Clear 36 2.2 24 -4.4 62 62 SW 20 31 30.32 1027 10 16 0.00 0.00

Powered by AerisWeather